This is the latest recevied weather packets stored in our database for station/object KC8YYF. If no packets are shown the sender has not sent any weather packets the latest 10 day(s).
| Time | Temp. | Humidity | Pressure | Rain* | Wind** | Luminosity | Snow |
|---|---|---|---|---|---|---|---|
| 1777683774 | 4.44° C | 95% | 1016.5 hPa | 0 mm | - | 0 W/m² | - |
| 1777683471 | 4.44° C | 95% | 1016.5 hPa | 0 mm | - | 0 W/m² | - |
| 1777683169 | 4.44° C | 95% | 1016.7 hPa | 0 mm | - | 0 W/m² | - |
| 1777682866 | 3.89° C | 94% | 1017 hPa | 0 mm | - | 0 W/m² | - |
| 1777682562 | 3.89° C | 94% | 1016.7 hPa | 0 mm | - | 0 W/m² | - |
| 1777682260 | 4.44° C | 94% | 1016.7 hPa | 0 mm | - | 0 W/m² | - |
| 1777681957 | 4.44° C | 94% | 1016.5 hPa | 0 mm | - | 0 W/m² | - |
| 1777681652 | 4.44° C | 93% | 1016.5 hPa | 0 mm | - | 0 W/m² | - |
| 1777681350 | 5° C | 92% | 1016.3 hPa | 0 mm | - | 0 W/m² | - |
| 1777681047 | 5° C | 92% | 1016.2 hPa | 0 mm | - | 0 W/m² | - |
| 1777680745 | 5° C | 91% | 1015.7 hPa | 0 mm | - | 0 W/m² | - |
| 1777680443 | 5.56° C | 90% | 1015.7 hPa | 0 mm | - | 1 W/m² | - |
| 1777680140 | 5.56° C | 90% | 1015.7 hPa | 0 mm | - | 2 W/m² | - |
| 1777679836 | 5.56° C | 88% | 1015.7 hPa | 0 mm | - | 2 W/m² | - |
| 1777679532 | 5.56° C | 88% | 1015.4 hPa | 0 mm | - | 5 W/m² | - |
| 1777679228 | 5.56° C | 87% | 1015.5 hPa | 0 mm | - | 7 W/m² | - |
| 1777678925 | 6.11° C | 86% | 1015.3 hPa | 0 mm | - | 7 W/m² | - |
| 1777678623 | 6.11° C | 86% | 1015.2 hPa | 0 mm | - | 10 W/m² | - |
| 1777678016 | 6.11° C | 86% | 1015.1 hPa | 0 mm | - | 12 W/m² | - |
| 1777677713 | 6.11° C | 84% | 1015.1 hPa | 0 mm | - | 17 W/m² | - |
| 1777677411 | 6.11° C | 86% | 1015.1 hPa | 0 mm | - | 13 W/m² | - |
| 1777677109 | 6.11° C | 86% | 1014.9 hPa | 0 mm | - | 17 W/m² | - |
| 1777676807 | 5.56° C | 88% | 1015.2 hPa | 0 mm | - | 24 W/m² | - |
| 1777676505 | 5.56° C | 89% | 1015 hPa | 0 mm | - | 21 W/m² | - |
| 1777676203 | 6.11° C | 89% | 1015.2 hPa | 0 mm | - | 11 W/m² | - |
* Rain latest hour (hover to see other rain measurements)
** Current wind speed in m/s (hover to see current wind gust speed)